Weather History for KLXN - February, 2013

Change the Weather History Date:

Tuesday, February 26, 2013

  Actual Average Record
Temperature  
Mean Temperature 17 °F -  
Max Temperature 33 °F 39 °F 66 °F (1999)
Min Temperature 1 °F 18 °F -7 °F (2014)
Degree Days  
Heating Degree Days 48    
Moisture  
Dew Point 14 °F    
Average Humidity 85    
Maximum Humidity 93    
Minimum Humidity 68    
Precipitation  
Precipitation 0.00 in - - ()
Sea Level Pressure  
Sea Level Pressure 29.87 in    
Wind  
Wind Speed 7 mph (NW)    
Max Wind Speed 13 mph    
Max Gust Speed -    
Visibility 10 miles    
Events      
Averages and records for this station are not official NWS values.
T = Trace of Precipitation, MM = Missing Value Source: NWS Daily Summary

Daily Weather History Graph

Daily Weather History Graph

Search for Another Location

Airport or City:

Trip Planner

Search our weather history database for the weather conditions in past years. The results will help you decide how hot, cold, wet, or windy it might be!

Date:

Astronomy

Feb. 26, 2013 Rise Set
Actual Time 7:17 AM CST 6:27 PM CST
Civil Twilight 6:49 AM CST 6:54 PM CST
Nautical Twilight 6:17 AM CST 7:26 PM CST
Astronomical Twilight 5:46 AM CST 7:58 PM CST
Moon 7:46 PM CST (2/26) 7:20 AM CST (2/26)
Length of Visible Light 12h 05m
Length of Day
11h 10m
Full, 99% of the Moon is Illuminated
Feb 26
Full
Mar 4
Last Quarter
Mar 11
New
Mar 19
First Quarter
Mar 27
Full

Hourly Weather History & Observations

Time (CST) Temp. Windchill Dew Point Humidity Pressure Visibility Wind Dir Wind Speed Gust Speed Precip Events Conditions
12:15 AM 11.3 °F -1.3 °F 8.8 °F 90% 29.90 in 10.0 mi WNW 9.2 mph - N/A   Clear
12:35 AM 12.4 °F -0.8 °F 10.2 °F 91% 29.90 in 7.0 mi WNW 10.4 mph - N/A   Clear
12:55 AM 11.1 °F -3.2 °F 8.8 °F 90% 29.90 in 10.0 mi WNW 11.5 mph - N/A   Clear
1:15 AM 11.7 °F 0.0 °F 9.0 °F 89% 29.89 in 7.0 mi WNW 8.1 mph - N/A   Clear
1:35 AM 9.0 °F -2.2 °F 5.9 °F 87% 29.90 in 10.0 mi NW 6.9 mph - N/A   Clear
1:55 AM 7.3 °F 0.5 °F 4.5 °F 88% 29.90 in 7.0 mi NW 3.5 mph - N/A   Clear
2:15 AM 7.9 °F -0.7 °F 5.0 °F 88% 29.90 in 5.0 mi NW 4.6 mph - N/A   Clear
2:35 AM 6.8 °F -3.5 °F 3.9 °F 88% 29.88 in 5.0 mi NW 5.8 mph - N/A   Clear
2:55 AM 3.7 °F -7.1 °F 0.1 °F 85% 29.88 in 7.0 mi NW 5.8 mph - N/A   Clear
3:15 AM 4.5 °F -6.3 °F 1.4 °F 87% 29.87 in 7.0 mi WNW 5.8 mph - N/A   Clear
3:35 AM 3.9 °F -9.4 °F 0.5 °F 86% 29.86 in 10.0 mi WNW 8.1 mph - N/A   Clear
3:55 AM 5.0 °F -10.0 °F 1.8 °F 86% 29.85 in 10.0 mi WNW 10.4 mph - N/A   Clear
4:15 AM 5.5 °F -8.4 °F 2.3 °F 86% 29.84 in 10.0 mi WNW 9.2 mph - N/A   Clear
4:35 AM 4.1 °F -6.7 °F 0.9 °F 86% 29.85 in 10.0 mi WNW 5.8 mph - N/A   Clear
4:55 AM 5.7 °F -7.2 °F 2.5 °F 86% 29.84 in 10.0 mi WNW 8.1 mph - N/A   Clear
5:15 AM 5.0 °F -8.1 °F 1.8 °F 86% 29.84 in 10.0 mi WNW 8.1 mph - N/A   Clear
5:35 AM 4.1 °F -6.7 °F 0.5 °F 85% 29.84 in 10.0 mi WNW 5.8 mph - N/A   Clear
5:55 AM 4.1 °F -12.0 °F 0.7 °F 86% 29.83 in 10.0 mi WNW 11.5 mph - N/A   Clear
6:15 AM 4.5 °F -8.7 °F 1.2 °F 86% 29.84 in 10.0 mi WNW 8.1 mph - N/A   Clear
6:35 AM 4.6 °F -12.0 °F 1.4 °F 86% 29.84 in 10.0 mi WNW 12.7 mph - N/A   Clear
6:55 AM 4.6 °F -9.5 °F 1.2 °F 86% 29.84 in 10.0 mi WNW 9.2 mph - N/A   Clear
7:15 AM 3.9 °F -9.4 °F 0.3 °F 85% 29.83 in 10.0 mi NW 8.1 mph - N/A   Clear
7:35 AM 3.7 °F -10.6 °F 0.5 °F 86% 29.85 in 10.0 mi WNW 9.2 mph - N/A   Clear
7:55 AM 5.0 °F - 1.6 °F 86% 29.85 in 7.0 mi Calm Calm - N/A   Clear
8:15 AM 1.8 °F - -1.8 °F 85% 29.86 in 10.0 mi Calm Calm - N/A   Scattered Clouds
8:35 AM 3.9 °F -3.4 °F 0.3 °F 85% 29.86 in 10.0 mi WNW 3.5 mph - N/A   Scattered Clouds
8:55 AM 3.6 °F -5.7 °F -0.0 °F 85% 29.86 in 10.0 mi WNW 4.6 mph - N/A   Clear
9:15 AM 5.9 °F -3.0 °F 2.8 °F 87% 29.86 in 10.0 mi West 4.6 mph - N/A   Clear
9:35 AM 8.4 °F 1.8 °F 5.5 °F 88% 29.85 in 10.0 mi WNW 3.5 mph - N/A   Clear
9:55 AM 9.3 °F -2.8 °F 6.6 °F 89% 29.85 in 10.0 mi WNW 8.1 mph - N/A   Clear
10:15 AM 11.3 °F -2.9 °F 8.6 °F 89% 29.85 in 10.0 mi WNW 11.5 mph - N/A   Clear
10:35 AM 14.0 °F 1.2 °F 11.7 °F 90% 29.85 in 10.0 mi WNW 10.4 mph - N/A   Clear
10:55 AM 16.9 °F 5.5 °F 14.9 °F 92% 29.84 in 10.0 mi WNW 9.2 mph - N/A   Clear
11:15 AM 19.2 °F 10.2 °F 17.4 °F 93% 29.84 in 10.0 mi NW 6.9 mph - N/A   Clear
11:35 AM 21.2 °F 12.6 °F 19.4 °F 93% 29.84 in 10.0 mi NW 6.9 mph - N/A   Clear
11:55 AM 22.8 °F 14.5 °F 20.5 °F 91% 29.84 in 10.0 mi WNW 6.9 mph - N/A   Clear
12:15 PM 24.8 °F 16.1 °F 20.3 °F 83% 29.84 in 10.0 mi WNW 8.1 mph - N/A   Clear
12:35 PM 25.7 °F 18.0 °F 21.0 °F 82% 29.84 in 10.0 mi WNW 6.9 mph - N/A   Clear
12:55 PM 26.6 °F 21.2 °F 21.6 °F 81% 29.83 in 10.0 mi NW 4.6 mph - N/A   Clear
1:15 PM 27.5 °F 22.2 °F 21.7 °F 79% 29.83 in 10.0 mi NW 4.6 mph - N/A   Clear
1:35 PM 28.8 °F 25.0 °F 23.0 °F 79% 29.82 in 10.0 mi NW 3.5 mph - N/A   Clear
1:55 PM 30.2 °F - 23.4 °F 76% 29.82 in 10.0 mi Calm Calm - N/A   Clear
2:15 PM 31.8 °F 28.5 °F 24.8 °F 75% 29.81 in 10.0 mi North 3.5 mph - N/A   Clear
2:35 PM 32.2 °F 25.8 °F 24.1 °F 72% 29.81 in 10.0 mi NNE 6.9 mph - N/A   Clear
2:55 PM 32.4 °F 26.9 °F 24.8 °F 74% 29.81 in 10.0 mi NE 5.8 mph - N/A   Clear
3:15 PM 33.3 °F 25.1 °F 23.5 °F 68% 29.82 in 10.0 mi NNE 10.4 mph - N/A   Clear
3:35 PM 33.3 °F 27.1 °F 24.1 °F 69% 29.82 in 10.0 mi NNE 6.9 mph - N/A   Clear
3:55 PM 33.3 °F - 25.0 °F 72% 29.82 in 10.0 mi Calm Calm - N/A   Clear
4:15 PM 32.9 °F - 24.8 °F 72% 29.83 in 10.0 mi Calm Calm - N/A   Clear
4:35 PM 32.9 °F 28.5 °F 24.8 °F 72% 29.83 in 10.0 mi North 4.6 mph - N/A   Clear
4:55 PM 32.4 °F 27.9 °F 25.3 °F 75% 29.84 in 10.0 mi NNE 4.6 mph - N/A   Clear
5:15 PM 32.4 °F 29.1 °F 25.0 °F 74% 29.85 in 10.0 mi NNE 3.5 mph - N/A   Clear
5:35 PM 31.8 °F 26.2 °F 25.5 °F 78% 29.85 in 10.0 mi East 5.8 mph - N/A   Clear
5:55 PM 30.2 °F 24.3 °F 25.7 °F 83% 29.86 in 10.0 mi East 5.8 mph - N/A   Clear
6:15 PM 29.3 °F 23.2 °F 25.0 °F 84% 29.87 in 10.0 mi East 5.8 mph - N/A   Clear
6:35 PM 28.0 °F 24.2 °F 24.3 °F 86% 29.88 in 10.0 mi East 3.5 mph - N/A   Clear
6:55 PM 28.4 °F 24.6 °F 24.8 °F 86% 29.89 in 10.0 mi ENE 3.5 mph - N/A   Clear
7:15 PM 27.5 °F 23.6 °F 24.4 °F 88% 29.90 in 10.0 mi ENE 3.5 mph - N/A   Clear
7:35 PM 26.2 °F - 23.4 °F 89% 29.90 in 10.0 mi Calm Calm - N/A   Clear
7:55 PM 25.7 °F - 23.5 °F 92% 29.90 in 10.0 mi Calm Calm - N/A   Clear
8:15 PM 23.5 °F - 21.6 °F 92% 29.91 in 7.0 mi Calm Calm - N/A   Clear
8:35 PM 23.9 °F - 21.9 °F 92% 29.92 in 10.0 mi Calm Calm - N/A   Clear
8:55 PM 23.9 °F 19.5 °F 22.1 °F 93% 29.92 in 7.0 mi WNW 3.5 mph - N/A   Clear
9:15 PM 22.6 °F 18.0 °F 20.7 °F 92% 29.92 in 7.0 mi NNW 3.5 mph - N/A   Clear
9:35 PM 23.7 °F 14.7 °F 21.7 °F 92% 29.94 in 10.0 mi NW 8.1 mph - N/A   Clear
9:55 PM 23.7 °F 14.7 °F 19.9 °F 85% 29.95 in 10.0 mi WNW 8.1 mph - N/A   Clear
10:15 PM 23.5 °F 14.5 °F 19.4 °F 84% 29.95 in 10.0 mi WNW 8.1 mph - N/A   Clear
10:55 PM 25.3 °F 16.7 °F 19.9 °F 80% 29.95 in 10.0 mi NW 8.1 mph - N/A   Overcast
11:15 PM 23.7 °F 16.6 °F 19.8 °F 85% 29.95 in 10.0 mi WNW 5.8 mph - N/A   Overcast
11:35 PM 24.8 °F 16.1 °F 20.7 °F 84% 29.95 in 10.0 mi WNW 8.1 mph - N/A   Overcast
11:55 PM 24.3 °F 13.9 °F 20.3 °F 85% 29.95 in 10.0 mi WNW 10.4 mph - N/A   Overcast